TimeMST,TemperatureF,Dew PointF,Humidity,Sea Level PressureIn,VisibilityMPH,Wind Direction,Wind SpeedMPH,Gust SpeedMPH,PrecipitationIn,Events,Conditions,WindDirDegrees,DateUTC
12:53 AM,39.0,27.0,62,29.95,10.0,NNW,12.7,-,N/A,,Overcast,340,2013-02-07 07:53:00
1:53 AM,37.9,26.1,62,29.98,10.0,North,13.8,-,N/A,,Overcast,360,2013-02-07 08:53:00
2:53 AM,35.1,24.1,64,30.00,10.0,North,13.8,-,N/A,,Partly Cloudy,360,2013-02-07 09:53:00
3:53 AM,33.1,25.0,72,30.02,10.0,North,12.7,-,N/A,,Clear,350,2013-02-07 10:53:00
4:53 AM,30.9,24.1,76,30.05,10.0,North,10.4,-,N/A,,Clear,360,2013-02-07 11:53:00
5:53 AM,24.1,19.9,84,30.09,10.0,NW,9.2,-,N/A,,Clear,310,2013-02-07 12:53:00
6:53 AM,23.0,19.9,88,30.13,10.0,WNW,10.4,-,N/A,,Clear,300,2013-02-07 13:53:00
7:53 AM,28.0,23.0,81,30.15,10.0,WNW,11.5,-,N/A,,Clear,300,2013-02-07 14:53:00
8:53 AM,37.0,26.1,65,30.16,10.0,NW,16.1,-,N/A,,Clear,320,2013-02-07 15:53:00
9:53 AM,43.0,27.0,53,30.15,10.0,NNW,12.7,21.9,N/A,,Clear,340,2013-02-07 16:53:00
10:53 AM,46.9,25.0,42,30.15,10.0,North,15.0,21.9,N/A,,Clear,350,2013-02-07 17:53:00
11:53 AM,48.9,21.9,35,30.13,10.0,NNW,10.4,19.6,N/A,,Clear,330,2013-02-07 18:53:00
12:53 PM,50.0,21.0,32,30.10,10.0,NNW,16.1,23.0,N/A,,Clear,330,2013-02-07 19:53:00
1:53 PM,51.1,21.0,31,30.09,10.0,NNW,8.1,20.7,N/A,,Clear,340,2013-02-07 20:53:00
2:53 PM,51.1,18.0,27,30.10,10.0,WNW,8.1,-,N/A,,Clear,300,2013-02-07 21:53:00
3:53 PM,50.0,17.1,27,30.10,10.0,North,5.8,-,N/A,,Clear,350,2013-02-07 22:53:00
4:53 PM,46.9,16.0,29,30.13,10.0,North,3.5,-,N/A,,Clear,10,2013-02-07 23:53:00
5:53 PM,39.0,14.0,36,30.18,10.0,Calm,Calm,-,N/A,,Clear,0,2013-02-08 00:53:00
6:53 PM,32.0,12.0,44,30.22,10.0,ESE,5.8,-,N/A,,Clear,120,2013-02-08 01:53:00
7:53 PM,28.9,10.9,47,30.21,10.0,SE,6.9,-,N/A,,Clear,130,2013-02-08 02:53:00
8:53 PM,26.1,10.0,51,30.19,10.0,SSE,11.5,-,N/A,,Clear,160,2013-02-08 03:53:00
10:53 PM,24.1,10.9,57,30.16,10.0,South,12.7,-,N/A,,Clear,180,2013-02-08 05:53:00
11:53 PM,26.1,12.0,55,30.15,10.0,SSW,15.0,-,N/A,,Clear,200,2013-02-08 06:53:00